Location: Acheville
(50.3840°N, 2.8827°E)
Time: 13:48:29
(UTC+00:00)

Daily predictions for brighter satellites

Satellite Brightness Start Highest point End
(mag) Time Altitude Azimuth Time Altitude Azimuth Time Altitude Azimuth
Cosmos 2369 3.9 17:01:23 10° SSW 17:07:04 83° WNW 17:12:48 10° NNE
PAYLOAD B 4.2 17:06:59 10° SSE 17:12:29 69° ENE 17:18:02 10° NNW
Cosmos 1455 Rocket 3.4 17:08:45 10° SSE 17:12:56 43° E 17:17:10 10° NNE
Cosmos 1892 4.4 17:12:09 10° NNE 17:14:10 14° ENE 17:16:11 10° E
YAOGAN 1 4.0 17:11:24 10° ESE 17:14:27 19° ENE 17:17:30 10° NNE
Cosmos 1697 Rocket 3.5 17:11:23 10° SW 17:16:54 53° NW 17:22:27 10° NNE
CZ-2D R/B 3.2 17:18:48 10° SSE 17:22:37 65° ENE 17:26:29 10° N
Cosmos 1328 4.0 17:19:24 10° N 17:23:22 52° ENE 17:27:18 10° SSE
Cosmos 1821 Rocket 4.0 17:17:34 10° S 17:23:56 77° E 17:30:17 10° NNE
NOSS 2 (A) 4.1 17:22:23 10° NW 17:25:18 78° NE 17:27:49 10° SE
Cosmos 1844 Rocket 3.3 17:21:41 10° NNW 17:26:51 36° NE 17:31:58 10° ESE
Cosmos 1544 Rocket 4.1 17:23:18 10° SSE 17:27:23 36° E 17:31:30 10° NNE
NOSS 2-3 (E) 4.5 17:24:43 10° S 17:28:12 28° ESE 17:32:09 10° ENE
USA 215 3.3 17:22:01 10° ENE 17:28:36 80° SSE 17:35:10 10° SW
Cosmos 1908 3.4 17:26:28 10° SSW 17:30:20 80° W 17:34:13 10° N
Lacrosse 4 Rocket 1.6 17:27:54 10° NNW 17:32:08 56° NE 17:36:27 10° SE
Cosmos 1408 4.1 17:29:50 10° NNE 17:32:18 17° ENE 17:34:31 11° ESE
Cosmos 1934 Rocket 4.1 17:29:07 10° SSE 17:34:57 52° E 17:40:49 10° NNE
Cosmos 389 Rocket 3.9 17:33:07 10° SW 17:36:21 40° WNW 17:39:39 10° N
Meteor 2-10 Rocket 4.4 17:31:58 10° SSE 17:36:36 28° E 17:41:06 10° NNE
Cosmos 1953 2.5 17:33:03 10° SSW 17:37:07 78° W 17:41:12 10° N
Okean O Rocket 1.5 17:37:29 10° SSE 17:41:47 65° ENE 17:46:08 10° N
H-2A R/B 2.2 17:37:46 10° SSE 17:43:12 86° ENE 17:48:42 10° NNW
deb Chang Zheng 4 3.7 17:42:34 10° SSE 17:46:47 78° WSW 17:51:02 10° NNW
Cosmos 332 Rocket 4.3 17:42:36 10° S 17:47:04 36° ESE 17:51:31 10° NE
Cosmos 2278 4.0 17:42:00 10° SW 17:47:40 71° WNW 17:53:24 10° NNE
X-37B 2.6 17:45:50 10° WSW 17:48:04 20° SSW 17:50:19 10° SE
GENESIS II 4.5 17:44:58 10° NNW 17:48:47 49° NE 17:51:47 15° ESE
ATLAS 3B R/B 3.6 17:43:19 10° WSW 17:49:39 44° NNW 17:56:19 10° NE
Cosmos 1602 Rocket 3.8 17:45:51 10° N 17:50:01 43° ENE 17:54:09 10° SSE
Cosmos 2278 Rocket 3.9 17:46:48 10° N 17:50:22 16° NNE 17:52:43 13° ENE
Spot 2 4.2 17:48:02 10° SE 17:52:06 49° ENE 17:56:24 10° N
SL-8 R/B 3.9 17:47:57 10° WSW 17:52:42 63° SSE 17:56:02 19° E
ATLAS 5 CENTAUR R/B 2.1 17:50:35 10° WSW 17:54:28 53° NW 17:58:59 10° NE
COSMO-SKYMED 1 2.5 17:51:14 10° NNE 17:55:34 62° ESE 17:59:52 10° S
NOSS 3-1 (A) 3.9 17:50:56 10° S 17:55:39 33° ESE 17:59:58 15° ENE
Okean 1-7 Rocket 3.7 17:52:49 10° NNW 17:57:16 82° W 18:01:43 10° S
Cosmos 1300 2.5 17:55:43 10° S 17:59:30 74° E 18:03:19 10° NNE
SL-16 R/B 2.2 17:54:21 10° SSW 17:59:55 62° ESE 18:05:32 10° NE
Cosmos 1825 3.5 17:57:16 10° NNE 17:59:50 20° ENE 17:59:50 20° ENE
Cosmos 2123 Rocket 4.1 17:54:23 10° N 18:00:46 86° W 18:07:03 10° S
HJ-1C 4.0 18:00:34 24° ESE 18:01:44 32° ENE 18:04:42 10° N
USA 267 4.1 17:58:13 10° SSE 18:04:32 50° SW 18:10:52 10° WNW
Okean-O 3.4 18:02:48 19° ESE 18:05:10 32° ENE 18:09:07 10° N
BREEZE-M R/B 2.8 18:02:58 10° W 18:06:29 62° SSW 18:09:11 20° ESE
CENTAUR R/B 4.0 18:00:43 10° NW 18:07:07 32° N 18:12:34 16° ENE
CZ-4 R/B 1.5 18:03:35 10° SSE 18:07:31 52° ENE 18:11:33 10° N
IRAS Rocket 4.5 18:04:26 10° NNE 18:09:47 46° E 18:15:03 10° S
Cosmos 2322 Rocket 2.2 18:06:38 10° S 18:12:07 59° ESE 18:17:40 10° NE
Cosmos 1825 Rocket 4.2 18:08:39 10° N 18:12:35 33° ENE 18:13:45 28° ESE
Cosmos 371 Rocket 3.3 18:08:27 10° SSW 18:13:20 84° WNW 18:18:16 10° NNE
NOSS 2-3 (D) 3.5 18:11:30 10° SSW 18:15:31 63° SE 18:18:26 22° NE
SJ-11-01 4.5 18:12:22 10° S 18:17:03 75° WSW 18:21:49 10° NNW
Cosmos 2251 Rocket 3.4 18:11:46 10° NNW 18:17:03 80° ENE 18:22:17 10° SSE
Cosmos 407 Rocket 3.9 18:12:21 10° NNW 18:17:27 43° ENE 18:20:05 25° ESE
Cosmos 1140 Rocket 3.9 18:13:22 10° NNW 18:18:18 42° ENE 18:20:33 27° ESE
Cosmos 2219 Rocket 4.1 18:15:23 10° SE 18:15:44 11° SE 18:15:44 11° SE
Cosmos 1844 3.7 18:13:32 10° NNW 18:19:20 67° ENE 18:23:55 16° SE
Cosmos 1758 Rocket 3.5 18:15:18 10° N 18:19:34 56° ENE 18:23:50 10° SSE
SL-08 RB Rocket 3.6 18:15:01 10° SSE 18:19:34 81° ENE 18:24:13 10° NNW
NOSS 3-1 (C) 3.2 18:14:20 10° SW 18:19:39 77° SE 18:25:08 14° NE
Cosmos 2360 Rocket 2.5 18:16:30 10° S 18:21:49 44° ESE 18:26:04 16° NE
Tiangong 3.3 18:21:50 10° SW 18:23:55 16° S 18:24:40 15° S
Cosmos 1626 Rocket 4.0 18:20:37 10° NNW 18:24:53 62° W 18:29:09 10° S
Cosmos 2228 3.5 18:21:02 10° SSE 18:25:04 37° E 18:29:09 10° NNE
H-2A R/B 2.4 18:21:14 10° SSE 18:25:30 86° WSW 18:29:38 10° NNW
Cosmos 1953 Rocket 4.4 18:21:43 10° N 18:25:25 31° ENE 18:25:25 31° ENE
Cosmos 2100 Rocket 4.5 18:22:17 10° SSE 18:27:55 36° E 18:33:37 10° NNE
NOSS 2-3 (C) 3.5 18:23:58 10° SW 18:28:05 83° SE 18:30:52 25° NE
ARGOS 3.5 18:23:20 10° S 18:28:42 66° WSW 18:34:08 10° NNW
Cosmos 2333 Rocket 3.3 18:24:20 10° SSE 18:27:35 24° SE 18:27:35 24° SE
SWARM C 4.4 18:26:20 10° S 18:29:39 89° ENE 18:32:58 10° N
SWARM A 4.1 18:26:33 10° S 18:29:52 89° ENE 18:33:11 10° N
MetOp-A 4.2 18:26:08 17° SE 18:30:07 54° ENE 18:35:20 10° N
Feng Yun 1-1 Rocket 4.4 18:25:15 10° SSE 18:30:51 79° WSW 18:36:40 10° NNW
CZ-4C R/B 3.3 18:31:55 10° N 18:35:17 63° WNW 18:38:31 10° SSW
Meteor 1-4 Rocket 2.5 18:32:27 10° SSW 18:35:55 76° WNW 18:39:22 10° N
NOSS 8 (H) 4.0 18:33:07 10° SW 18:36:17 87° WNW 18:36:17 87° WNW
In-Cosmos 22 Rocket 4.1 18:32:31 10° NNW 18:37:53 84° W 18:43:11 10° S
Cosmos 220 Rocket 3.9 18:33:56 10° SSW 18:38:20 75° ESE 18:41:02 23° NNE
Cosmos 2173 Rocket 4.3 18:34:21 10° SSE 18:40:04 40° E 18:45:53 10° NNE
Cosmos 44 3.5 18:35:17 10° SSW 18:40:37 60° ESE 18:42:36 36° ENE
Cosmos 614 Rocket 4.4 18:40:18 10° NNW 18:45:18 60° WSW 18:50:18 10° S
Cosmos 1980 Rocket 4.1 18:41:39 10° W 18:46:26 27° NW 18:51:15 10° NNE
CZ-2C R/B 3.2 18:40:56 10° N 18:46:29 63° WNW 18:51:55 10° SSW
Cosmos 1943 Rocket 4.2 18:44:36 10° N 18:47:19 13° NNE 18:47:58 13° NNE
CSL-04 Debris 4.1 18:44:16 25° SSE 18:47:27 68° ENE 18:52:51 10° N
Cosmos 2344 4.4 18:40:20 10° NW 18:49:18 76° SW 19:01:52 10° SSE
YAOGAN 1 3.1 18:45:52 10° S 18:50:09 60° W 18:54:27 10° NNW
H-2A R/B 2.2 18:51:01 51° SSE 18:51:01 51° SSE 18:54:21 10° S
Cosmos 1892 3.1 18:46:31 10° NNW 18:50:14 60° W 18:53:16 15° S
Cosmos 1605 Rocket 4.2 18:44:09 10° SSW 18:50:26 74° WNW 18:56:51 10° N
IRS-1C Rocket 4.0 18:45:54 10° SSE 18:51:10 86° WSW 18:56:29 10° NNW
CSL-04 Rocket 3.6 18:56:00 32° SSE 18:58:42 76° ENE 19:04:16 10° NNW
Cosmos 2058 4.4 18:56:44 10° N 18:58:45 26° NNE 18:58:45 26° NNE
Cosmos 1190 Rocket 3.9 18:56:19 10° NNW 19:01:32 67° ENE 19:02:03 63° E
Cosmos 1408 3.8 19:04:03 10° NNW 19:07:27 40° W 19:08:49 27° SW
Lacrosse 4 Rocket 3.8 19:07:10 10° WNW 19:10:30 22° WSW 19:13:52 10° SSW
Cosmos 1844 Rocket 3.5 19:05:33 10° NW 19:10:54 48° WSW 19:15:10 16° S
USA 215 3.6 19:08:28 32° NE 19:11:29 57° NNW 19:17:52 10° W
Cosmos 2369 Rocket 4.4 19:10:02 10° N 19:11:53 11° NNE 19:12:12 11° NNE
USA 229 DEB 3.6 19:17:08 10° SW 19:23:36 80° NW 19:26:38 36° NE
USA 229 3.6 19:17:15 10° SW 19:23:42 81° NW 19:26:42 37° NE
SL-8 R/B 4.4 19:30:19 10° W 19:33:59 50° WSW 19:33:59 50° WSW
Cosmos 1825 4.0 19:32:17 10° NNW 19:34:37 29° NW 19:34:37 29° NW
Cosmos 2278 Rocket 2.8 19:30:11 10° NNW 19:34:34 46° NNE 19:34:34 46° NNE
Cosmos 2346 Rocket 4.5 19:30:17 10° NNW 19:36:34 79° W 19:38:12 52° S
ATLAS 5 CENTAUR R/B 3.7 19:36:52 10° WNW 19:40:09 20° NNW 19:40:45 20° N
Okean-O 4.1 19:40:23 29° SW 19:41:37 34° W 19:45:41 10° NNW
Ariane Rocket 4.5 19:44:25 28° N 19:44:25 28° N 19:46:52 10° N
ATLAS 3B R/B 4.2 19:36:25 10° WNW 19:42:07 27° N 19:44:43 22° NNE
CZ-4 R/B 4.1 19:40:01 10° SW 19:42:49 18° W 19:45:41 10° NW
NOSS 3-2 (C) 4.5 19:37:15 10° NW 19:43:51 42° NNE 19:44:20 41° NE
SL-16 R/B 3.9 19:39:27 10° WSW 19:44:27 31° NW 19:49:28 10° NNE
NOSS 3-1 (A) 3.7 19:40:40 10° WSW 19:46:07 60° NW 19:47:27 49° N
Resurs 01 Rocket 4.2 19:57:02 13° N 19:57:02 13° N 19:57:27 10° N
Cosmos 2322 Rocket 3.8 19:51:34 10° WSW 19:56:32 31° NW 20:00:35 14° N
CENTAUR R/B 3.3 19:51:57 10° NW 19:59:33 54° NE 19:59:45 54° NE
Cosmos 2219 Rocket 4.4 19:56:46 10° SSW 19:57:35 14° SSW 19:57:35 14° SSW
NOSS 3-2 (A) 4.1 19:57:08 10° NW 20:03:52 61° NNE 20:03:52 61° NNE
Cosmos 2360 Rocket 3.4 20:00:37 10° WSW 20:05:54 39° NW 20:07:53 30° N
Cosmos 2333 Rocket 3.8 20:07:15 10° SW 20:09:43 26° SW 20:09:43 26° SW
USA 238 DEB 4.3 20:07:17 10° NW 20:13:15 50° N 20:13:15 50° N
USA 238 4.3 20:07:23 10° NW 20:13:20 50° N 20:13:20 50° N
Cosmos 1943 Rocket 4.2 20:27:26 10° NNW 20:29:29 21° N 20:29:29 21° N
USA 215 4.3 20:55:49 41° NW 20:55:49 41° NW 21:00:18 10° WNW
ATLAS 3B R/B 4.5 21:28:30 10° NW 21:31:57 26° NNW 21:31:57 26° NNW
CENTAUR R/B 4.3 21:42:44 10° NW 21:46:55 35° WNW 21:46:55 35° WNW
